This is the latest recevied weather packets stored in our database for station/object YT1XN-8. If no packets are shown the sender has not sent any weather packets the latest 1 day(s).
| Time | Temp. | Humidity | Pressure | Rain* | Wind** | Luminosity | Snow |
|---|---|---|---|---|---|---|---|
| 1778074601 | 27.22° C | 42% | 1011.7 hPa | 0 mm | - | - | - |
| 1778074242 | 27.22° C | 42% | 1011.8 hPa | 0 mm | - | - | - |
| 1778073941 | 27.78° C | 42% | 1011.8 hPa | 0 mm | - | - | - |
| 1778073281 | 27.78° C | 46% | 1011.9 hPa | 0 mm | - | - | - |
| 1778073042 | 27.22° C | 47% | 1011.9 hPa | 0 mm | - | - | - |
| 1778072621 | 27.22° C | 44% | 1012 hPa | 0 mm | - | - | - |
| 1778071961 | 27.78° C | 42% | 1012.1 hPa | 0 mm | - | - | - |
| 1778071842 | 27.78° C | 43% | 1012.2 hPa | 0 mm | - | - | - |
| 1778071301 | 26.67° C | 46% | 1012.4 hPa | 0 mm | - | - | - |
| 1778071242 | 26.67° C | 45% | 1012.4 hPa | 0 mm | - | - | - |
| 1778069442 | 26.67° C | 44% | 1012.6 hPa | 0 mm | - | - | - |
| 1778067642 | 26.67° C | 47% | 1012.9 hPa | 0 mm | - | - | - |
| 1778064642 | 25.56° C | 45% | 1013.4 hPa | 0 mm | - | - | - |
| 1778062842 | 26.11° C | 46% | 1013.8 hPa | 0 mm | - | - | - |
| 1778060442 | 25.56° C | 48% | 1014.3 hPa | 0 mm | - | - | - |
| 1778058760 | 25° C | 47% | 1014.4 hPa | 0 mm | - | - | - |
| 1778058100 | 25° C | 50% | 1014.3 hPa | 0 mm | - | - | - |
| 1778057440 | 24.44° C | 50% | 1014.3 hPa | 0 mm | - | - | - |
| 1778056842 | 24.44° C | 50% | 1014.4 hPa | 0 mm | - | - | - |
| 1778056780 | 24.44° C | 50% | 1014.4 hPa | 0 mm | - | - | - |
| 1778055641 | 23.89° C | 52% | 1014.4 hPa | 0 mm | - | - | - |
| 1778055460 | 23.33° C | 50% | 1014.3 hPa | 0 mm | - | - | - |
| 1778054800 | 23.33° C | 53% | 1014.3 hPa | 0 mm | - | - | - |
| 1778054140 | 22.22° C | 53% | 1014.4 hPa | 0 mm | - | - | - |
| 1778053480 | 22.22° C | 56% | 1014.5 hPa | 0 mm | - | - | - |
* Rain latest hour (hover to see other rain measurements)
** Current wind speed in m/s (hover to see current wind gust speed)